Location: Ferchesar
(52.6477°N, 12.4298°E)
Time: 18:27:12
(UTC+01:00)

Transit 4A - Pass Details

Date: 14 December 2021
Orbit: 864 x 980 km, 66.8° (Epoch: 16 January)

Event Time Altitude Azimuth Distance (km) Brightness Sun altitude
Rises 19:08:42 0° 251° (WSW) 3,497 12.0 -27.8°
Reaches altitude 10° 19:11:21 10° 259° (W) 2,576 11.2 -28.2°
Maximum altitude 19:16:54 38° 327° (NNW) 1,367 8.9 -29.0°
Enters shadow 19:18:33 33° 1° (N) 1,524 8.9 -29.3°
